{"data":{"norad_id":65341,"epoch":"2026-09-20T14:27:26.225568Z","epoch_age_seconds":108623,"freshness":"FRESH","line1":"1 65341U 25189U   26263.60238687  .00021517  00000+0  64618-3 0  9996","line2":"2 65341  53.1602  18.9180 0001348  77.1909 282.9244 15.34397353 60936","mean_motion":15.34397353,"eccentricity":0.0001348,"inclination_deg":53.1602,"raan_deg":18.918,"arg_perigee_deg":77.1909,"mean_anomaly_deg":282.9244,"bstar":0.00064618,"rev_number":6093,"period_min":93.847919978783,"perigee_km":461.78896133533,"apogee_km":463.63325398516,"semimajor_km":6840.8481076602,"source":"CELESTRAK","updated_at":"2026-09-21T09:00:35.572739Z"}}